User: anonymous
Location: Caltech
(34.1382°N, 118.1253°W)
Time: 09:30:36
(UTC-07:00)
Language:

Cosmos 1939 Rocket - Orbit

View from above orbital plane
View from above orbital plane
View from above satellite
View from above satellite

Ground track
Ground track

The orbit data is extracted from the following two-line orbital elements,

1 19046U 88032B   14274.69906099  .00003256  00000-0  26379-3 0    73
2 19046 097.6385 327.3280 0039664 100.4564 260.1133 14.99789663424168
Epoch (UTC): 01 October 2014 16:46:38
Eccentricity: 0.0039664
inclination: 97.6385°
perigee height: 540 km
apogee height: 595 km
right ascension of ascending node: 327.3280°
argument of perigee: 100.4564°
revolutions per day: 14.99789663
mean anomaly at epoch: 260.1133°
orbit number at epoch: 42416

The dashed part of the orbit path shows where the satellite is in the earth's shadow,  

DLR